User: anonymous   Login
Location: Unspecified
(0.0000°N, 0.0000°E)
Time: 16:00:30
(UTC+02:00)
Language:

ATLAS 3B CENTAUR R/B - Orbit

View from above orbital plane
View from above orbital plane
View from above satellite
View from above satellite

Ground track
Ground track

The orbit data is extracted from the following two-line orbital elements,

1 28118U 03057B   17177.93940200 +.00052751 +00000-0 +76690-3 0  9996
2 28118 028.1341 104.9700 3059600 301.6336 032.0949 09.35859028122176
Epoch (UTC): 26 June 2017 22:32:44
Eccentricity: 0.3059600
inclination: 28.1341°
perigee height: 223 km
apogee height: 6044 km
right ascension of ascending node: 104.9700°
argument of perigee: 301.6336°
revolutions per day: 9.35859028
mean anomaly at epoch: 32.0949°
orbit number at epoch: 12217

The dashed part of the orbit path shows where the satellite is in the earth's shadow,  

DLR